STARLINK-11184, 60071

Orbit data source: Space-Track

STARLINK-11184, 60071 is a payload satellite owned by SpaceX/Seattle (US) in LEO that was launched on Wed, 19 Jun 2024 UTC via an FALCON 9 launch vehicle from the Air Force Western Test Range (AFWTR). Payload-class satellites include a variety of spacecraft equipped with specific instruments for various scientific and technological missions. These include communications satellites like Starlink; space stations such as the ISS; scientific satellites like the Hubble; Earth observation satellites from companies like Planet Labs, Umbra, and HawkEye 360; GPS; miniature CubeSats for education and research; and military/defense satellites.

Loading next visibility...
Identifier
60071, 2024-113N
Orbit
LEO
Country
Flag of USUS
Related business
Manufacturer
SpaceX/Seattle
Mission
Operational Commercial Communications
Bus & Motor
STARLINK V2MD, Unknown motor
Mass
960 kg wet, ~910 kg dry
Launch date (UTC)
2024-06-19 (2 years ago)
Launch vehicle
FALCON 9
Launch site
Air Force Western Test Range (AFWTR)
Object type
Payload
Rocket body
Debris
Shape & HBR
Box + 2 Pan, 18.1 m
Radar Cross Section
36.964 m², Large (>1 m²)

Expand to show TLE details & history
Last TLE update: 12 hours ago

TLE from 12 hours ago
0 STARLINK-11184
1 60071U 24113N   26171.35645869 -.00001356  00000-0 -63348-5 0  9994
2 60071  53.1588  45.3214 0001274  77.3503 282.7657 15.69703467115680
Epoch: 2026-06-20T08:33Z
TLE epoch observation values (Epoch: 2026-06-20T08:33:18.030Z)
Latitude
-0.00006°
Longitude
8.42397°
Altitude
360.471 km
Speed
7.694 km/s
True Right ascension
03h 01m 17s
True Declination
0° 00' 00"
Sunlit
Object was in daylight at epoch
Visualization orbit readout
Latitude
Unknown
Longitude
Unknown
Altitude
Unknown
Speed
Unknown
Apparent Right ascension
Unknown
Apparent Declination
Unknown
Sunlit
N/A
Visualization observer readout
Local Sidereal Time
07:18:30
Azimuth
Unknown
Elevation
Unknown
Doppler factor
Unknown
Orbital elements
Apogee altitude
360.865 km
Perigee altitude
359.148 km
Semi-major axis
6,738.143 km
Eccentricity
0.00013
Inclination
53.1588°
RAAN
45.3214°
Arg. of periapsis
77.3503°
True anomaly
282.75146°
Mean anomaly
282.7657°
Eccentric anomaly
282.75858°
Mean motion
3.92403 °/min
Orbital period
91.74 mins
BSTAR
-0.0000063348
Loading maneuver chart data...
Computing Atmospheric mass density...
Loading historical data...
Loading historical data...
Loading historical data...
Loading historical data...
Loading historical data...
Loading historical data...
Loading historical data...

Documentation

Showing up to 5 results
|